Dewpoint
8 3 2 1 3 2 4 3 2 -1 -2 -3 -3 -4 -5 -6 -7 -7 -8 -6 -7 -7 -6 -3 -2 -2 -0 -1 3 0 1 -2 -2 -5 -3 -4 -3 -3 -2 -3 -3 -6 -7 -9 -11 -11 -11 -11 -11 -11 -11 -11 -9 -8 -9 -0 -6 -6 -9 -9 -9 -9 4
10 6 3 1 1 1 2 3 3 0 -1 -1 -1 -3 -4 -4 -4 -6 -6 -4 -4 -4 0 3 4 3 2 2 5 5 3 2 -1 0 -3 -4 -2 -4 -2 -5 -4 -5 -6 -8 -9 -10 -10 -10 -11 -11 -11 -11 -10 -10 -6 -7 -8 -9 -10 -10 -10 -8 -9
12 9 5 3 2 2 1 3 3 2 2 2 1 -0 -2 -3 -3 -4 -3 -1 -1 -1 1 5 6 6 7 5 6 6 4 3 2 1 0 -0 -1 -4 -5 -5 -5 -5 -6 -7 -7 -8 -9 -10 -11 -11 -11 -11 -11 -8 -9 -10 -9 -8 -8 -8 -9 -9 -9
13 10 6 4 3 3 2 3 3 4 3 4 3 2 3 1 -0 -0 -0 3 5 6 6 6 7 7 8 7 6 5 3 3 3 1 0 0 -1 -2 -6 -6 -6 -5 -5 -6 -7 -8 -8 -9 -10 -10 -10 -10 -9 -9 -8 -8 -7 -7 -7 -7 -6 -6 -7
13 10 8 5 5 4 3 4 4 5 5 4 4 4 5 7 7 7 6 6 7 10 8 8 8 8 8 7 6 5 3 3 3 2 1 0 -1 -2 -4 -6 -6 -6 -5 -5 -6 -7 -8 -7 -8 -9 -9 -8 -9 -8 -7 -7 -7 -6 -3 -5 -5 -6 -7
12 11 9 6 5 5 5 5 5 5 6 5 5 4 7 9 9 7 9 9 8 9 10 10 9 8 8 7 6 4 4 4 3 2 1 1 -0 -1 -1 -2 -4 -4 -3 -4 -5 -5 -7 -8 -8 -9 -9 -9 -8 -9 -8 -6 -5 -6 -4 -3 -3 -2 -3
12 11 10 8 8 7 7 7 7 7 7 7 7 10 11 10 10 9 10 10 10 11 11 11 10 9 9 8 7 5 5 4 3 2 2 1 1 0 -0 -2 -3 -3 -3 -4 -5 -6 -6 -6 -6 -8 -8 -8 -9 -9 -9 -9 -8 -7 -5 -4 -4 -4 -3
12 10 9 8 8 9 8 11 11 11 11 11 11 11 12 11 11 11 11 11 12 12 12 11 11 10 9 8 8 7 6 5 3 2 1 1 1 0 -0 -2 -3 -4 -3 -4 -5 -5 -6 -5 -6 -6 -6 -6 -7 -7 -7 -7 -8 -8 -8 -6 -4 -3 -4
12 10 9 8 9 10 10 12 12 11 11 12 13 13 12 12 12 12 12 12 12 12 12 11 11 10 9 9 9 10 8 7 6 2 1 1 1 0 -1 -2 -4 -4 -4 -5 -5 -5 -5 -5 -5 -6 -7 -7 -7 -7 -8 -8 -8 -7 -7 -6 -6 -5 -3
12 13 12 11 12 13 13 12 12 14 17 16 13 13 13 13 13 13 13 12 12 12 11 11 10 10 11 10 11 10 10 9 8 7 3 1 1 -0 -1 -3 -4 -5 -5 -4 -5 -6 -5 -6 -6 -6 -7 -7 -7 -8 -8 -8 -8 -9 -9 -8 -7 -6 -5
14 13 13 13 13 13 13 14 14 17 18 19 18 15 14 13 13 14 13 12 11 10 10 10 10 8 10 10 11 9 10 9 9 8 7 6 5 3 -1 -3 -4 -5 -5 -5 -6 -5 -6 -6 -7 -6 -6 -7 -7 -7 -8 -8 -8 -8 -8 -8 -9 -10 -8
14 13 14 14 14 14 14 14 17 18 20 20 21 19 15 14 13 13 13 12 11 10 9 8 7 7 7 7 7 7 8 9 9 8 8 7 6 5 4 5 -1 -4 -5 -5 -6 -6 -6 -7 -7 -7 -6 -6 -6 -7 -7 -7 -8 -7 -8 -8 -8 -8 -9
15 14 14 14 15 14 15 15 18 20 21 22 22 23 19 14 14 13 12 11 11 10 8 7 6 5 5 5 9 8 6 6 7 9 8 8 7 6 6 9 11 8 -2 -4 -5 -6 -6 -6 -6 -7 -6 -5 -6 -5 -7 -7 -7 -7 -7 -7 -8 -8 -8
14 14 14 14 14 15 15 15 17 20 21 22 23 23 22 14 13 12 11 11 9 8 7 6 5 4 3 3 4 5 5 4 4 5 6 7 6 4 5 5 6 5 6 3 -3 -4 -6 -5 -5 -6 -5 -4 -1 -5 -6 -7 -7 -7 -7 -7 -7 -7 -7
13 14 13 14 14 14 14 14 17 20 21 22 23 23 22 13 12 11 10 9 8 7 6 5 5 4 3 3 2 3 4 3 3 2 2 2 2 3 2 3 3 3 4 5 5 1 -1 -1 -1 -3 -3 -3 -3 -3 -4 -4 -6 -6 -6 -5 -5 -6 -6
11 12 12 12 12 12 12 11 18 19 21 22 22 22 20 13 11 10 9 7 6 6 5 5 4 3 2 2 1 3 6 5 2 1 -0 -1 -1 -1 -1 0 4 9 10 5 4 4 4 3 2 7 0 -1 -2 -3 -2 -2 -2 -4 -6 -6 -7 -8 -7
10 10 10 10 11 11 11 9 15 19 20 21 21 20 18 13 10 9 8 7 6 5 4 4 4 3 2 2 2 4 10 12 6 1 -1 -2 -3 -3 -3 -3 -1 8 13 14 15 14 14 14 15 14 14 15 14 4 0 -4 -5 -5 -5 -6 -7 -7 -7
8 8 9 9 9 10 9 8 12 17 19 20 20 19 17 13 10 9 8 7 7 6 4 4 5 5 3 3 2 6 11 12 8 5 2 -1 -1 -2 -3 -3 -2 -1 2 12 14 13 13 15 14 15 14 14 12 13 12 -2 -5 -4 -4 -6 -6 -8 -7
7 7 7 7 7 10 8 7 9 15 18 18 19 18 16 13 9 7 8 8 7 7 6 6 6 6 5 4 5 11 13 14 9 7 7 4 1 -0 -1 -1 -0 -1 -1 -1 -0 1 3 4 7 7 6 6 7 9 9 5 1 -1 -3 -5 -6 -6 -6
6 6 5 6 6 6 7 6 6 7 15 17 18 18 15 11 9 8 6 5 6 5 6 6 6 7 9 14 13 14 14 14 15 9 8 7 4 1 0 2 1 0 -1 -1 -2 -2 -1 -1 0 -0 -2 -4 -5 -3 -2 -1 -0 3 0 -3 -4 -5 -5
4 4 4 4 5 4 5 5 5 5 12 15 16 16 15 11 9 8 8 7 6 5 4 4 4 5 7 11 14 15 15 15 15 12 8 7 6 5 5 6 2 1 3 -0 -2 -3 -3 -3 -3 -3 -4 -5 -6 -6 -7 -7 -4 -3 1 0 -2 -3 -4
2 3 2 2 2 2 3 4 5 3 8 11 12 13 13 9 8 8 7 7 6 6 5 4 3 2 4 6 12 13 14 14 14 13 7 7 13 13 13 7 6 3 2 1 -0 -2 -3 -4 -4 -4 -5 -5 -5 -6 -5 -7 -7 -5 -5 -2 -1 -2 -4
1 -0 -1 -1 2 2 2 2 3 5 3 7 10 11 12 12 11 13 9 7 6 5 5 4 3 2 4 5 12 13 13 14 14 11 8 14 14 14 10 8 7 6 3 1 -0 -1 -3 -4 -4 -5 -5 -5 -6 -6 -6 -6 -6 -7 -6 -5 -3 -2 -2
-2 -2 -2 -2 -1 -0 1 1 1 3 4 4 7 9 10 11 12 12 9 8 7 7 5 4 3 2 10 12 13 13 13 13 9 7 13 14 11 8 9 6 5 6 4 2 0 -1 -2 -3 -4 -4 -5 -5 -5 -5 -6 -6 -6 -6 -7 -7 -6 -5 -4
-4 -3 -3 -3 -3 -3 -2 -2 -1 -1 0 2 3 7 8 9 10 8 7 6 6 8 8 7 11 12 12 12 12 12 12 8 6 8 10 9 8 8 3 -1 -1 0 1 2 0 -1 -2 -2 -3 -3 -4 -4 -4 -5 -8 -11 -12 -10 -9 -9 -11 -12 -10
-7 -7 -7 -6 -7 -7 -6 -6 -5 -4 -4 -1 1 1 5 7 3 3 4 5 5 6 7 9 10 9 9 8 7 6 5 5 5 6 6 6 6 2 1 -2 -5 -6 -2 -1 0 -1 -1 -2 -2 -3 -4 -5 -5 -5 -7 -9 -10 -12 -13 -14 -14 -15 -14
-9 -9 -9 -9 -9 -10 -10 -10 -8 -6 -6 -5 -5 -4 -3 -1 -1 1 1 0 -1 -0 -1 1 4 5 7 7 7 7 7 7 6 4 4 3 2 -2 -1 -1 -2 -3 -3 -3 -3 -2 -1 -1 -1 -4 -6 -6 -5 -6 -7 -8 -8 -10 -9 -13 -16 -14 -12
-10 -9 -9 -10 -11 -11 -12 -10 -10 -8 -8 -7 -7 -7 -6 -6 -5 -6 -6 -6 -6 -7 -6 -6 -2 -1 2 3 4 4 4 4 4 4 2 0 -4 -3 -3 -0 2 1 -3 -3 -4 -5 -6 -7 -5 -5 -5 -6 -7 -6 -8 -10 -9 -10 -11 -13 -15 -18 -14
-7 -6 -10 -8 -8 -8 -8 -12 -9 -9 -3 -6 -3 -6 -8 -8 -8 -8 -8 -5 -4 -6 -8 -10 -9 -8 -7 -6 -4 -2 -1 -1 -0 -1 -1 -4 -5 -6 -7 -6 -3 -2 -3 -5 -8 -8 -8 -7 -7 -6 -6 -7 -9 -10 -11 -13 -11 -14 -11 -17 -16 -13 -12
1 1 -1 -2 -2 -3 -4 -4 -3 1 9 10 8 8 3 -0 4 0 -5 -4 -3 -3 -7 -9 -10 -9 -9 -8 -8 -8 -7 -6 -5 -5 -6 -7 -3 -5 -8 -8 -7 -6 -5 -6 -9 -9 -10 -10 -11 -11 -12 -13 -12 -16 -18 -16 -10 -16 -16 -16 -17 -16 -16
7 8 4 3 2 4 4 3 4 5 10 10 10 10 10 9 6 6 5 4 -1 -4 -5 -7 -7 -7 -8 -8 -9 -9 -9 -8 -8 -8 -7 -7 -7 -7 -6 -6 -7 -7 -7 -7 -8 -9 -9 -9 -11 -11 -12 -13 -13 -13 -17 -21 -18 -18 -18 -16 -16 -17 -17
7 8 7 3 1 1 -0 2 2 2 8 9 10 10 10 10 10 10 8 3 3 -0 -2 -4 -5 -5 -6 -7 -8 -8 -8 -8 -9 -9 -9 -9 -9 -9 -8 -8 -8 -8 -8 -8 -8 -9 -10 -12 -12 -12 -12 -13 -13 -14 -16 -17 -18 -18 -18 -19 -21 -19 -18
4 4 4 5 5 6 6 2 0 2 8 8 8 9 3 6 5 -0 -1 0 -2 -5 -5 -3 -3 -4 -4 -5 -6 -7 -8 -8 -9 -9 -9 -9 -9 -9 -9 -8 -8 -7 -8 -9 -9 -9 -10 -11 -12 -13 -14 -15 -15 -15 -16 -17 -17 -18 -18 -19 -20 -20 -21
-5 -6 -6 -4 1 2 3 4 4 4 3 4 6 5 4 -1 -1 5 3 -0 -3 -5 -7 -7 -8 -7 -6 -5 -4 -5 -6 -7 -7 -8 -8 -8 -8 -9 -9 -9 -9 -9 -9 -10 -9 -9 -10 -11 -12 -14 -14 -16 -16 -16 -16 -17 -18 -19 -20 -21 -21 -21 -23
-13 -10 -9 -9 -8 -7 -7 -7 -7 -7 -6 -6 -5 -2 2 3 -8 -9 -9 -10 -14 -12 -12 -12 -11 -10 -9 -8 -7 -6 -6 -6 -6 -6 -7 -7 -8 -8 -8 -9 -10 -10 -10 -10 -10 -10 -11 -12 -13 -14 -14 -15 -16 -17 -18 -18 -19 -21 -21 -21 -23 -24 -24
-14 -14 -10 -9 -9 -9 -8 -8 -8 -8 -8 2 5 2 -4 -13 -15 -16 -16 -15 -15 -14 -12 -12 -11 -10 -10 -10 -9 -8 -8 -7 -7 -7 -6 -6 -6 -7 -8 -9 -10 -10 -10 -11 -11 -12 -12 -12 -14 -14 -15 -16 -16 -18 -18 -19 -20 -21 -22 -22 -23 -24 -24